SCP
0 0 0 0 0 0 0 0 0 0 0 0 0 0 0 0 0 0 0 0 0 0 0 0 0 0 0 0 0 0 0 0 0 0 0 1 1 1 1 1 1 1 0 0
0 -0 0 0 0 0 0 0 0 0 0 0 0 0 0 0 0 0 0 0 0 0 0 0 0 0 0 0 0 0 0 0 0 0 1 1 1 1 1 1 1 1 0 1
-0 0 0 0 0 0 0 0 0 0 0 0 0 0 0 0 0 0 0 0 0 0 -0 -0 0 0 0 0 0 0 0 0 0 0 1 2 1 0 1 1 1 0 0 1
0 -0 0 0 0 0 0 0 0 0 0 0 0 0 0 0 0 0 0 0 0 0 0 0 0 0 0 0 0 0 0 0 0 0 1 1 1 1 1 0 1 1 1 1
0 0 0 0 0 0 0 0 0 0 0 0 0 0 -0 -0 -0 0 0 0 0 -0 0 0 0 0 0 0 0 0 0 0 0 0 1 1 1 1 1 1 1 1 1 1
-0 0 0 0 0 0 0 -0 -0 0 0 0 0 0 -0 0 -0 -0 -0 -0 0 0 0 0 0 0 0 0 0 0 0 0 0 0 1 0 1 0 1 1 1 1 1 1
0 -0 0 0 0 0 0 0 0 0 0 0 0 0 0 0 0 0 0 0 0 0 0 0 0 0 0 0 0 0 0 0 0 1 0 0 0 0 1 0 1 1 1 0
-0 -0 0 0 0 0 0 0 0 0 0 0 0 0 0 -0 -0 0 -0 0 0 0 0 0 0 0 0 0 0 0 0 1 1 0 0 0 0 0 0 0 0 0 0 0
-0 -0 0 0 -0 0 0 0 0 0 0 0 0 0 0 0 0 0 0 0 0 0 0 0 0 0 0 0 0 0 0 0 0 0 0 0 0 0 0 0 0 0 0 0
-0 -0 -0 0 0 0 0 0 0 0 0 0 0 0 0 0 0 0 0 0 -0 0 0 0 0 0 0 0 0 0 0 0 0 0 0 0 0 0 0 0 0 0 0 0
-0 0 0 -0 -0 -0 0 0 0 0 0 0 0 0 0 0 0 0 0 0 0 -0 0 0 0 0 0 0 0 0 0 -0 0 0 0 0 0 0 0 0 0 0 0 0
-0 -0 0 0 0 0 0 0 0 0 0 0 0 0 0 0 0 0 0 0 0 0 0 0 0 0 0 0 0 0 0 0 0 0 0 0 0 0 0 0 0 0 0 0
0 0 0 0 0 0 0 0 0 0 0 0 0 0 0 0 0 0 0 0 0 0 0 0 0 0 0 0 0 0 0 0 0 0 0 0 0 0 0 0 0 0 0 0
0 0 0 0 0 0 0 0 0 0 0 0 0 0 0 0 0 0 0 0 0 0 0 0 0 0 0 0 0 -0 -0 -0 -0 0 -0 -0 0 0 0 0 0 0 0 0
0 0 -0 -0 -0 0 0 -0 0 0 -0 0 0 -0 -0 -0 -0 -0 0 0 0 0 1 0 0 0 0 0 0 0 -0 -0 -0 -0 -0 0 0 0 0 0 0 0 0 0
0 -0 -0 -0 0 0 -0 -0 -0 -0 -0 -0 0 0 -0 -0 -0 -0 -0 0 0 0 0 0 0 0 0 0 0 0 -0 -0 -0 -0 -0 0 0 0 0 0 0 0 0 0
-0 -0 -0 -0 -0 -0 0 -0 -0 -0 -0 -0 0 0 0 0 -0 -0 -0 0 0 0 0 0 0 0 0 0 0 0 0 -0 -0 -0 -0 0 0 -0 -0 0 0 0 0 0
-0 0 -0 -0 -0 0 -0 0 -0 -0 -0 -0 -0 -0 0 0 0 -0 -0 0 0 0 0 0 0 0 0 0 0 0 0 -0 -0 -0 -0 -0 -0 -0 -0 -0 -0 0 0 0
-0 -0 0 0 0 0 -0 0 -0 -0 -0 -0 -0 0 0 0 0 -0 0 0 0 1 0 0 0 0 0 0 0 0 -0 -0 -0 -0 -0 -0 -0 -0 -0 -0 -0 -0 -0 0
0 0 0 0 0 0 0 0 0 0 0 -0 -0 0 0 0 -0 0 0 0 0 0 0 0 0 0 0 0 0 0 -0 0 0 -0 -0 -0 -0 -0 -0 0 -0 0 0 -0
0 0 0 0 0 0 0 -0 -0 -0 0 0 0 0 0 0 0 0 0 0 0 0 0 0 0 0 0 0 0 -0 0 0 0 0 -0 -0 -0 0 0 0 -0 -0 -0 0
0 0 0 0 0 0 0 0 -0 0 -0 0 0 0 0 0 0 0 0 0 0 0 0 -0 0 0 0 0 0 0 0 -0 -0 -0 -0 -0 -0 0 0 0 -0 0 -0 0
0 0 0 0 0 0 0 -0 -0 -0 0 0 0 0 0 0 0 0 0 0 0 1 0 0 0 0 0 0 0 0 -0 -0 -0 0 -0 -0 0 0 0 -0 -0 -0 0 0
0 0 0 0 0 -0 0 -0 -0 -0 0 0 0 0 0 0 0 0 0 0 0 1 0 0 0 0 -0 -0 0 0 -0 -0 -0 -0 0 0 -0 -0 -0 0 -0 -0 0 0
0 0 0 0 -0 -0 0 -0 -0 0 0 0 0 0 0 0 0 0 0 0 0 0 0 0 -0 -0 -0 -0 -0 -0 -0 -0 -0 0 0 0 0 0 0 -0 -0 -0 -0 0
0 0 0 0 -0 -0 -0 0 0 0 0 0 0 0 0 0 0 0 0 0 0 0 0 0 0 0 -0 -0 -0 -0 -0 -0 -0 -0 -0 0 0 0 0 0 0 -0 0 -0
Wind_Speed_500mb
4 17 32 36 33 42 36 21 42 36 14 29 53 60 49 50 61 62 63 60 63 71 67 69 87 84 82 71 65 58 49 44 48 51 50 52 52 56 53 55 60 43 38 35
10 30 27 25 29 30 38 39 29 21 23 16 28 44 33 32 43 55 57 63 65 69 69 77 81 76 69 66 60 58 49 48 50 53 49 48 46 49 51 52 39 33 31 30
33 32 14 19 32 37 37 42 43 28 23 30 25 48 48 45 50 62 66 68 67 70 71 74 84 79 68 63 54 51 52 52 56 52 40 40 43 42 43 46 35 31 32 30
26 36 28 27 28 30 40 22 25 33 28 29 12 24 31 28 35 40 51 54 66 70 66 88 92 92 86 75 69 66 62 56 58 48 38 38 42 39 36 27 29 30 32 30
36 31 29 31 31 30 27 37 28 16 20 22 40 23 41 26 39 37 32 49 60 70 64 63 69 70 63 58 57 59 54 55 49 39 39 37 34 32 27 27 32 36 34 34
44 44 35 35 24 19 28 27 42 35 28 32 39 20 45 35 46 40 36 54 49 39 40 47 53 50 43 39 35 35 41 41 33 34 31 28 25 27 32 36 39 37 36 29
30 37 39 38 36 23 16 22 16 21 22 37 19 26 46 14 11 5 18 30 42 45 43 41 47 48 43 39 30 33 28 28 28 30 28 28 25 26 30 39 39 33 35 37
14 16 15 14 46 36 26 30 17 29 24 33 26 25 17 16 33 27 14 20 32 42 35 37 30 35 32 30 31 27 24 29 35 35 35 33 32 35 34 32 30 32 34 27
11 5 9 29 9 31 30 19 37 15 4 16 23 35 34 35 37 23 27 25 36 43 44 33 27 22 28 26 22 27 35 41 42 41 40 41 40 38 36 35 34 32 27 24
4 13 7 6 9 8 15 9 21 16 10 15 18 34 17 2 13 11 22 30 49 55 44 19 13 15 20 28 38 44 45 46 47 45 45 45 40 37 37 35 30 27 23 21
11 6 10 11 10 12 17 12 10 19 22 7 5 6 4 21 21 21 27 38 53 54 28 3 12 29 40 46 49 50 49 51 51 49 47 45 42 36 33 30 28 24 20 18
9 8 11 21 15 18 5 12 18 15 37 23 18 9 4 15 22 28 37 56 55 40 19 1 18 38 45 47 51 53 53 53 50 48 47 42 37 35 31 27 24 22 22 23
12 3 12 12 11 9 1 7 10 14 11 28 26 14 16 17 37 43 50 60 53 36 13 6 22 29 39 45 49 53 53 54 52 49 43 38 33 29 27 25 25 28 27 26
28 12 18 18 18 13 18 22 23 15 18 27 38 44 56 43 42 43 59 56 47 36 10 11 23 27 35 43 49 54 55 53 49 43 39 36 33 30 29 26 28 30 29 25
6 19 26 30 32 32 35 37 36 34 32 33 31 41 51 38 38 42 55 54 57 48 12 18 25 28 36 41 48 53 55 51 45 42 42 37 31 27 25 26 31 31 29 21
12 7 9 22 29 31 42 42 42 48 44 39 47 52 42 50 61 55 55 61 54 45 20 27 31 32 36 42 45 49 52 47 44 46 41 33 28 25 26 25 37 33 23 17
8 10 13 29 17 19 25 46 50 44 42 35 45 43 45 43 41 42 50 49 51 45 24 32 34 35 39 43 45 45 45 45 46 42 35 30 25 26 33 37 35 27 22 18
11 9 6 13 12 15 6 1 12 28 33 36 43 38 44 46 48 50 60 60 57 38 24 36 38 38 42 45 46 46 44 44 40 34 30 26 22 26 35 33 31 27 23 18
28 15 6 7 14 25 33 4 4 12 23 22 34 47 41 43 43 58 66 55 39 28 26 37 39 42 45 47 50 49 49 40 33 28 25 23 21 30 32 34 30 27 22 19
11 21 13 10 10 9 9 3 14 14 16 7 29 32 24 15 15 26 24 18 22 19 26 38 41 46 51 50 53 49 44 37 30 25 22 23 22 25 29 34 28 26 23 19
4 4 20 21 10 12 6 25 24 11 5 35 32 14 19 14 26 33 38 30 16 16 27 37 45 51 57 57 52 45 43 39 28 22 24 22 21 21 25 34 27 22 21 18
5 7 4 7 10 8 15 20 5 16 40 45 41 30 26 35 42 47 50 34 20 20 33 42 46 48 58 58 55 46 49 36 29 24 29 27 23 22 23 24 24 21 19 19
6 4 6 6 6 21 28 28 45 53 46 54 40 37 32 36 37 37 36 29 18 19 34 41 45 52 56 56 55 51 47 39 31 32 33 27 22 20 19 18 18 18 19 20
9 8 6 6 14 26 28 30 36 48 54 41 30 33 27 30 27 27 27 20 18 21 46 46 49 57 58 56 55 48 44 37 33 34 33 27 21 20 18 16 13 12 15 19
8 16 10 10 19 39 7 37 41 47 41 27 19 13 12 6 11 17 18 7 9 19 36 43 53 61 60 57 51 49 42 38 35 34 32 27 21 18 18 17 17 14 14 12
6 8 6 7 33 24 22 34 53 53 41 40 33 29 22 15 13 22 19 16 19 21 31 39 39 48 56 58 56 49 45 39 38 35 30 28 23 21 17 17 21 22 22 20
Wind_Direction_500mb
193 244 230 233 236 254 262 303 259 251 210 233 226 245 246 250 256 263 263 263 265 269 274 274 279 278 280 278 273 266 271 286 296 299 276 263 253 253 253 246 249 254 254 245
211 248 260 258 251 248 244 250 253 280 264 255 249 260 256 257 259 264 267 268 267 272 274 277 278 280 277 277 273 268 270 290 295 294 274 255 249 252 247 243 247 245 238 228
262 255 258 260 247 244 240 240 242 248 279 277 270 271 262 255 256 261 260 263 267 266 271 274 279 276 277 276 272 273 281 284 285 293 260 240 242 246 241 239 234 227 217 202
259 260 238 247 240 242 245 230 237 237 238 251 211 272 264 257 255 254 260 258 261 266 266 271 272 273 275 274 276 277 278 276 280 279 244 238 241 243 249 239 218 203 195 190
263 286 256 245 241 225 252 230 239 246 246 263 251 271 267 250 258 255 268 261 260 260 268 268 271 277 275 270 267 263 262 266 269 249 230 232 233 233 225 203 190 186 179 169
265 274 253 242 240 244 229 218 217 229 239 247 241 241 276 257 261 261 257 257 264 279 288 270 269 278 273 270 263 251 247 253 252 223 214 213 210 206 190 181 177 170 167 177
296 283 243 232 233 228 231 201 189 205 210 234 219 213 244 338 97 319 296 291 288 294 293 286 276 274 266 265 257 238 230 234 217 194 182 176 170 174 175 167 165 166 174 176
317 336 331 214 224 227 223 217 219 214 204 233 206 221 244 248 268 266 292 303 299 302 305 300 288 260 254 239 236 221 211 194 179 166 160 153 152 155 154 154 153 156 161 167
301 276 334 330 307 221 226 225 232 295 263 215 198 243 267 267 281 277 298 332 331 326 317 301 283 251 234 242 203 180 171 163 157 156 154 148 148 150 150 148 147 154 164 178
274 292 191 255 360 314 250 252 207 214 230 212 215 234 245 127 233 42 20 2 346 340 325 280 250 195 167 151 150 152 154 156 152 151 148 146 147 149 148 150 156 166 174 192
295 249 292 292 221 170 266 219 241 251 238 282 267 155 170 112 70 20 9 354 348 344 339 291 154 145 146 147 148 150 151 148 146 146 145 144 143 145 149 154 163 173 187 192
325 298 289 287 289 278 253 293 239 244 226 239 283 271 112 104 27 3 350 342 342 343 340 12 151 152 147 146 148 149 148 145 145 146 145 146 149 149 154 161 170 174 174 157
350 287 309 315 160 84 283 259 277 292 271 253 241 243 170 285 327 337 334 340 343 343 336 172 160 152 147 147 148 147 146 145 146 144 144 145 147 151 153 155 160 162 153 147
319 254 253 268 303 319 291 285 286 268 259 250 239 260 267 287 306 319 327 329 334 339 316 182 168 155 153 149 148 146 146 146 145 143 144 141 141 145 147 147 156 154 148 145
271 266 250 255 268 276 276 279 279 260 259 250 260 255 267 285 299 311 316 312 318 327 263 199 182 160 156 152 150 149 149 149 147 145 142 140 138 142 149 153 156 151 148 146
202 260 264 254 259 264 273 274 262 256 255 255 254 258 271 284 287 291 301 301 306 317 253 200 187 170 162 158 154 154 153 151 150 147 146 144 143 145 152 162 159 151 150 145
233 235 249 265 273 288 274 250 247 254 253 252 240 250 260 265 271 280 287 290 297 301 239 197 183 173 168 162 159 159 158 156 156 155 154 160 164 160 155 149 150 150 152 155
219 210 226 272 297 254 271 304 266 271 271 257 244 240 247 252 267 281 280 281 288 286 222 193 180 173 169 165 163 163 163 161 160 161 167 173 174 166 167 162 162 159 160 153
218 210 241 240 230 285 285 55 61 307 283 289 232 231 242 251 283 283 275 270 265 269 215 192 177 170 167 168 169 166 166 165 166 166 174 178 166 163 167 166 164 165 166 167
220 226 223 213 249 268 22 161 331 322 266 237 223 225 229 238 259 265 313 274 261 239 197 181 171 168 169 170 172 170 172 175 175 176 175 169 161 166 169 171 168 170 165 178
333 211 229 235 259 271 40 326 310 222 28 326 303 271 257 236 239 278 302 304 269 220 189 176 172 169 169 170 172 171 176 180 178 171 162 150 144 155 170 177 175 174 180 187
293 307 263 214 236 256 354 323 265 317 301 296 291 285 271 262 268 274 275 282 254 199 185 177 171 168 171 171 172 172 180 178 181 164 153 146 149 154 159 166 176 183 191 194
293 230 288 250 289 272 305 236 282 289 283 294 290 288 273 265 268 269 254 246 238 199 184 176 171 167 172 175 176 176 180 187 179 167 157 154 165 169 174 178 182 190 198 205
286 327 265 296 244 274 303 299 292 304 291 281 273 264 261 257 255 243 230 235 230 211 185 175 170 169 173 175 177 174 182 183 173 161 162 171 176 185 185 184 189 185 198 205
287 304 276 249 279 310 193 343 335 341 357 20 24 23 6 273 227 196 181 155 139 163 173 175 173 177 178 177 176 179 180 185 180 173 179 181 184 188 188 180 161 144 136 151
303 314 310 292 309 321 324 353 2 352 357 27 29 34 41 39 139 145 124 96 110 135 172 175 177 183 187 186 182 174 178 185 187 183 186 192 191 194 189 173 155 134 131 128
Wind_Speed_850mb
4 17 32 36 33 42 36 21 42 36 14 29 53 60 49 50 61 62 63 60 63 71 67 69 87 84 82 71 65 58 49 44 48 51 50 52 52 56 53 55 60 43 38 35
10 30 27 25 29 30 38 39 29 21 23 16 28 44 33 32 43 55 57 63 65 69 69 77 81 76 69 66 60 58 49 48 50 53 49 48 46 49 51 52 39 33 31 30
33 32 14 19 32 37 37 42 43 28 23 30 25 48 48 45 50 62 66 68 67 70 71 74 84 79 68 63 54 51 52 52 56 52 40 40 43 42 43 46 35 31 32 30
26 36 28 27 28 30 40 22 25 33 28 29 12 24 31 28 35 40 51 54 66 70 66 88 92 92 86 75 69 66 62 56 58 48 38 38 42 39 36 27 29 30 32 30
36 31 29 31 31 30 27 37 28 16 20 22 40 23 41 26 39 37 32 49 60 70 64 63 69 70 63 58 57 59 54 55 49 39 39 37 34 32 27 27 32 36 34 34
44 44 35 35 24 19 28 27 42 35 28 32 39 20 45 35 46 40 36 54 49 39 40 47 53 50 43 39 35 35 41 41 33 34 31 28 25 27 32 36 39 37 36 29
30 37 39 38 36 23 16 22 16 21 22 37 19 26 46 14 11 5 18 30 42 45 43 41 47 48 43 39 30 33 28 28 28 30 28 28 25 26 30 39 39 33 35 37
14 16 15 14 46 36 26 30 17 29 24 33 26 25 17 16 33 27 14 20 32 42 35 37 30 35 32 30 31 27 24 29 35 35 35 33 32 35 34 32 30 32 34 27
11 5 9 29 9 31 30 19 37 15 4 16 23 35 34 35 37 23 27 25 36 43 44 33 27 22 28 26 22 27 35 41 42 41 40 41 40 38 36 35 34 32 27 24
4 13 7 6 9 8 15 9 21 16 10 15 18 34 17 2 13 11 22 30 49 55 44 19 13 15 20 28 38 44 45 46 47 45 45 45 40 37 37 35 30 27 23 21
11 6 10 11 10 12 17 12 10 19 22 7 5 6 4 21 21 21 27 38 53 54 28 3 12 29 40 46 49 50 49 51 51 49 47 45 42 36 33 30 28 24 20 18
9 8 11 21 15 18 5 12 18 15 37 23 18 9 4 15 22 28 37 56 55 40 19 1 18 38 45 47 51 53 53 53 50 48 47 42 37 35 31 27 24 22 22 23
12 3 12 12 11 9 1 7 10 14 11 28 26 14 16 17 37 43 50 60 53 36 13 6 22 29 39 45 49 53 53 54 52 49 43 38 33 29 27 25 25 28 27 26
28 12 18 18 18 13 18 22 23 15 18 27 38 44 56 43 42 43 59 56 47 36 10 11 23 27 35 43 49 54 55 53 49 43 39 36 33 30 29 26 28 30 29 25
6 19 26 30 32 32 35 37 36 34 32 33 31 41 51 38 38 42 55 54 57 48 12 18 25 28 36 41 48 53 55 51 45 42 42 37 31 27 25 26 31 31 29 21
12 7 9 22 29 31 42 42 42 48 44 39 47 52 42 50 61 55 55 61 54 45 20 27 31 32 36 42 45 49 52 47 44 46 41 33 28 25 26 25 37 33 23 17
8 10 13 29 17 19 25 46 50 44 42 35 45 43 45 43 41 42 50 49 51 45 24 32 34 35 39 43 45 45 45 45 46 42 35 30 25 26 33 37 35 27 22 18
11 9 6 13 12 15 6 1 12 28 33 36 43 38 44 46 48 50 60 60 57 38 24 36 38 38 42 45 46 46 44 44 40 34 30 26 22 26 35 33 31 27 23 18
28 15 6 7 14 25 33 4 4 12 23 22 34 47 41 43 43 58 66 55 39 28 26 37 39 42 45 47 50 49 49 40 33 28 25 23 21 30 32 34 30 27 22 19
11 21 13 10 10 9 9 3 14 14 16 7 29 32 24 15 15 26 24 18 22 19 26 38 41 46 51 50 53 49 44 37 30 25 22 23 22 25 29 34 28 26 23 19
4 4 20 21 10 12 6 25 24 11 5 35 32 14 19 14 26 33 38 30 16 16 27 37 45 51 57 57 52 45 43 39 28 22 24 22 21 21 25 34 27 22 21 18
5 7 4 7 10 8 15 20 5 16 40 45 41 30 26 35 42 47 50 34 20 20 33 42 46 48 58 58 55 46 49 36 29 24 29 27 23 22 23 24 24 21 19 19
6 4 6 6 6 21 28 28 45 53 46 54 40 37 32 36 37 37 36 29 18 19 34 41 45 52 56 56 55 51 47 39 31 32 33 27 22 20 19 18 18 18 19 20
9 8 6 6 14 26 28 30 36 48 54 41 30 33 27 30 27 27 27 20 18 21 46 46 49 57 58 56 55 48 44 37 33 34 33 27 21 20 18 16 13 12 15 19
8 16 10 10 19 39 7 37 41 47 41 27 19 13 12 6 11 17 18 7 9 19 36 43 53 61 60 57 51 49 42 38 35 34 32 27 21 18 18 17 17 14 14 12
6 8 6 7 33 24 22 34 53 53 41 40 33 29 22 15 13 22 19 16 19 21 31 39 39 48 56 58 56 49 45 39 38 35 30 28 23 21 17 17 21 22 22 20
Wind_Direction_850mb
193 244 230 233 236 254 262 303 259 251 210 233 226 245 246 250 256 263 263 263 265 269 274 274 279 278 280 278 273 266 271 286 296 299 276 263 253 253 253 246 249 254 254 245
211 248 260 258 251 248 244 250 253 280 264 255 249 260 256 257 259 264 267 268 267 272 274 277 278 280 277 277 273 268 270 290 295 294 274 255 249 252 247 243 247 245 238 228
262 255 258 260 247 244 240 240 242 248 279 277 270 271 262 255 256 261 260 263 267 266 271 274 279 276 277 276 272 273 281 284 285 293 260 240 242 246 241 239 234 227 217 202
259 260 238 247 240 242 245 230 237 237 238 251 211 272 264 257 255 254 260 258 261 266 266 271 272 273 275 274 276 277 278 276 280 279 244 238 241 243 249 239 218 203 195 190
263 286 256 245 241 225 252 230 239 246 246 263 251 271 267 250 258 255 268 261 260 260 268 268 271 277 275 270 267 263 262 266 269 249 230 232 233 233 225 203 190 186 179 169
265 274 253 242 240 244 229 218 217 229 239 247 241 241 276 257 261 261 257 257 264 279 288 270 269 278 273 270 263 251 247 253 252 223 214 213 210 206 190 181 177 170 167 177
296 283 243 232 233 228 231 201 189 205 210 234 219 213 244 338 97 319 296 291 288 294 293 286 276 274 266 265 257 238 230 234 217 194 182 176 170 174 175 167 165 166 174 176
317 336 331 214 224 227 223 217 219 214 204 233 206 221 244 248 268 266 292 303 299 302 305 300 288 260 254 239 236 221 211 194 179 166 160 153 152 155 154 154 153 156 161 167
301 276 334 330 307 221 226 225 232 295 263 215 198 243 267 267 281 277 298 332 331 326 317 301 283 251 234 242 203 180 171 163 157 156 154 148 148 150 150 148 147 154 164 178
274 292 191 255 360 314 250 252 207 214 230 212 215 234 245 127 233 42 20 2 346 340 325 280 250 195 167 151 150 152 154 156 152 151 148 146 147 149 148 150 156 166 174 192
295 249 292 292 221 170 266 219 241 251 238 282 267 155 170 112 70 20 9 354 348 344 339 291 154 145 146 147 148 150 151 148 146 146 145 144 143 145 149 154 163 173 187 192
325 298 289 287 289 278 253 293 239 244 226 239 283 271 112 104 27 3 350 342 342 343 340 12 151 152 147 146 148 149 148 145 145 146 145 146 149 149 154 161 170 174 174 157
350 287 309 315 160 84 283 259 277 292 271 253 241 243 170 285 327 337 334 340 343 343 336 172 160 152 147 147 148 147 146 145 146 144 144 145 147 151 153 155 160 162 153 147
319 254 253 268 303 319 291 285 286 268 259 250 239 260 267 287 306 319 327 329 334 339 316 182 168 155 153 149 148 146 146 146 145 143 144 141 141 145 147 147 156 154 148 145
271 266 250 255 268 276 276 279 279 260 259 250 260 255 267 285 299 311 316 312 318 327 263 199 182 160 156 152 150 149 149 149 147 145 142 140 138 142 149 153 156 151 148 146
202 260 264 254 259 264 273 274 262 256 255 255 254 258 271 284 287 291 301 301 306 317 253 200 187 170 162 158 154 154 153 151 150 147 146 144 143 145 152 162 159 151 150 145
233 235 249 265 273 288 274 250 247 254 253 252 240 250 260 265 271 280 287 290 297 301 239 197 183 173 168 162 159 159 158 156 156 155 154 160 164 160 155 149 150 150 152 155
219 210 226 272 297 254 271 304 266 271 271 257 244 240 247 252 267 281 280 281 288 286 222 193 180 173 169 165 163 163 163 161 160 161 167 173 174 166 167 162 162 159 160 153
218 210 241 240 230 285 285 55 61 307 283 289 232 231 242 251 283 283 275 270 265 269 215 192 177 170 167 168 169 166 166 165 166 166 174 178 166 163 167 166 164 165 166 167
220 226 223 213 249 268 22 161 331 322 266 237 223 225 229 238 259 265 313 274 261 239 197 181 171 168 169 170 172 170 172 175 175 176 175 169 161 166 169 171 168 170 165 178
333 211 229 235 259 271 40 326 310 222 28 326 303 271 257 236 239 278 302 304 269 220 189 176 172 169 169 170 172 171 176 180 178 171 162 150 144 155 170 177 175 174 180 187
293 307 263 214 236 256 354 323 265 317 301 296 291 285 271 262 268 274 275 282 254 199 185 177 171 168 171 171 172 172 180 178 181 164 153 146 149 154 159 166 176 183 191 194
293 230 288 250 289 272 305 236 282 289 283 294 290 288 273 265 268 269 254 246 238 199 184 176 171 167 172 175 176 176 180 187 179 167 157 154 165 169 174 178 182 190 198 205
286 327 265 296 244 274 303 299 292 304 291 281 273 264 261 257 255 243 230 235 230 211 185 175 170 169 173 175 177 174 182 183 173 161 162 171 176 185 185 184 189 185 198 205
287 304 276 249 279 310 193 343 335 341 357 20 24 23 6 273 227 196 181 155 139 163 173 175 173 177 178 177 176 179 180 185 180 173 179 181 184 188 188 180 161 144 136 151
303 314 310 292 309 321 324 353 2 352 357 27 29 34 41 39 139 145 124 96 110 135 172 175 177 183 187 186 182 174 178 185 187 183 186 192 191 194 189 173 155 134 131 128